Time,TemperatureF,DewpointF,PressureIn,WindDirection,WindDirectionDegrees,WindSpeedMPH,WindSpeedGustMPH,Humidity,HourlyPrecipIn,Conditions,Clouds,dailyrainin,SoftwareType,DateUTC
2013-07-14 00:13:00,59.5,30.0,29.96,ESE,117,0.0,3.0,33,0.00,,,0.01,weatherlink.com 1.10,2013-07-14 07:13:00,
2013-07-14 00:28:00,59.9,30.0,29.97,ESE,117,0.0,1.0,32,0.00,,,0.01,weatherlink.com 1.10,2013-07-14 07:28:00,
2013-07-14 00:43:00,60.3,29.0,29.97,ESE,105,0.0,2.0,31,0.00,,,0.01,weatherlink.com 1.10,2013-07-14 07:43:00,
2013-07-14 00:59:00,59.2,30.0,29.97,East,101,0.0,0.0,33,0.00,,,0.01,weatherlink.com 1.10,2013-07-14 07:59:00,
2013-07-14 01:13:00,57.5,30.0,29.98,ESE,120,1.0,1.0,35,0.00,,,0.01,weatherlink.com 1.10,2013-07-14 08:13:00,
2013-07-14 01:28:00,58.3,30.0,29.98,ESE,117,0.0,1.0,34,0.00,,,0.01,weatherlink.com 1.10,2013-07-14 08:28:00,
2013-07-14 01:43:00,57.6,30.0,29.97,ESE,117,0.0,0.0,35,0.00,,,0.01,weatherlink.com 1.10,2013-07-14 08:43:00,
2013-07-14 01:58:00,56.4,30.0,29.97,ESE,118,0.0,0.0,36,0.00,,,0.01,weatherlink.com 1.10,2013-07-14 08:58:00,
2013-07-14 02:13:00,56.4,30.0,29.98,ESE,119,0.0,0.0,36,0.00,,,0.01,weatherlink.com 1.10,2013-07-14 09:13:00,
2013-07-14 02:28:00,56.1,29.0,29.97,ESE,118,0.0,0.0,36,0.00,,,0.00,weatherlink.com 1.10,2013-07-14 09:28:00,
2013-07-14 02:43:00,57.7,29.0,29.97,ESE,117,0.0,1.0,34,0.00,,,0.00,weatherlink.com 1.10,2013-07-14 09:43:00,
2013-07-14 02:58:00,57.6,29.0,29.97,ESE,117,0.0,1.0,34,0.00,,,0.00,weatherlink.com 1.10,2013-07-14 09:58:00,
2013-07-14 03:13:00,57.9,30.0,29.97,SE,142,0.0,1.0,34,0.00,,,0.00,weatherlink.com 1.10,2013-07-14 10:13:00,
2013-07-14 03:28:00,56.9,29.0,29.97,ESE,111,0.0,2.0,35,0.00,,,0.00,weatherlink.com 1.10,2013-07-14 10:28:00,
2013-07-14 03:43:00,58.0,30.0,29.97,ESE,116,0.0,1.0,34,0.00,,,0.00,weatherlink.com 1.10,2013-07-14 10:43:00,
2013-07-14 03:58:00,57.9,30.0,29.96,ESE,114,0.0,1.0,34,0.00,,,0.00,weatherlink.com 1.10,2013-07-14 10:58:00,
2013-07-14 04:13:00,57.1,30.0,29.96,South,169,0.0,1.0,35,0.00,,,0.00,weatherlink.com 1.10,2013-07-14 11:13:00,
2013-07-14 04:28:00,55.2,30.0,29.96,SE,124,1.0,1.0,38,0.00,,,0.00,weatherlink.com 1.10,2013-07-14 11:28:00,
2013-07-14 04:43:00,55.0,30.0,29.96,SE,124,0.0,2.0,38,0.00,,,0.00,weatherlink.com 1.10,2013-07-14 11:43:00,
2013-07-14 04:58:00,55.2,30.0,29.96,SSE,149,0.0,3.0,38,0.00,,,0.00,weatherlink.com 1.10,2013-07-14 11:58:00,
2013-07-14 05:13:00,54.7,30.0,29.97,SSE,162,1.0,4.0,39,0.00,,,0.00,weatherlink.com 1.10,2013-07-14 12:13:00,
2013-07-14 05:28:00,53.7,30.0,29.96,ESE,115,2.0,3.0,41,0.00,,,0.00,weatherlink.com 1.10,2013-07-14 12:28:00,
2013-07-14 05:43:00,53.1,30.0,29.97,ESE,120,1.0,2.0,42,0.00,,,0.00,weatherlink.com 1.10,2013-07-14 12:43:00,
2013-07-14 05:58:00,54.0,31.0,29.97,SE,139,1.0,1.0,41,0.00,,,0.00,weatherlink.com 1.10,2013-07-14 12:58:00,
2013-07-14 06:13:00,54.1,31.0,29.97,SE,125,1.0,2.0,41,0.00,,,0.00,weatherlink.com 1.10,2013-07-14 13:13:00,
2013-07-14 06:28:00,53.8,31.0,29.97,ESE,105,1.0,2.0,42,0.00,,,0.00,weatherlink.com 1.10,2013-07-14 13:28:00,
2013-07-14 06:43:00,55.5,31.0,29.97,East,94,0.0,2.0,40,0.00,,,0.00,weatherlink.com 1.10,2013-07-14 13:43:00,
2013-07-14 06:58:00,55.1,33.0,29.97,ESE,122,0.0,1.0,43,0.00,,,0.00,weatherlink.com 1.10,2013-07-14 13:58:00,
2013-07-14 07:13:00,57.0,33.0,29.97,SE,128,1.0,2.0,40,0.00,,,0.00,weatherlink.com 1.10,2013-07-14 14:13:00,
2013-07-14 07:28:00,58.6,34.0,29.97,SSE,159,1.0,5.0,40,0.00,,,0.00,weatherlink.com 1.10,2013-07-14 14:28:00,
2013-07-14 07:44:00,60.6,35.0,29.97,SSE,152,2.0,5.0,38,0.00,,,0.00,weatherlink.com 1.10,2013-07-14 14:44:00,
2013-07-14 07:59:00,62.4,35.0,29.97,SSE,162,1.0,3.0,36,0.00,,,0.00,weatherlink.com 1.10,2013-07-14 14:59:00,
2013-07-14 08:14:00,63.7,33.0,29.97,SE,136,1.0,4.0,32,0.00,,,0.00,weatherlink.com 1.10,2013-07-14 15:14:00,
2013-07-14 08:29:00,64.8,33.0,29.96,West,269,0.0,2.0,30,0.00,,,0.00,weatherlink.com 1.10,2013-07-14 15:29:00,
2013-07-14 08:44:00,64.9,33.0,29.96,North,1,1.0,3.0,31,0.00,,,0.00,weatherlink.com 1.10,2013-07-14 15:44:00,
2013-07-14 08:59:00,65.6,33.0,29.96,WNW,290,1.0,4.0,30,0.00,,,0.00,weatherlink.com 1.10,2013-07-14 15:59:00,
2013-07-14 09:14:00,66.3,33.0,29.96,WNW,293,1.0,3.0,29,0.00,,,0.00,weatherlink.com 1.10,2013-07-14 16:14:00,
2013-07-14 09:29:00,67.0,33.0,29.95,NNE,18,0.0,2.0,28,0.00,,,0.00,weatherlink.com 1.10,2013-07-14 16:29:00,
2013-07-14 09:44:00,68.0,33.0,29.95,West,260,0.0,5.0,27,0.00,,,0.00,weatherlink.com 1.10,2013-07-14 16:44:00,
2013-07-14 09:59:00,69.0,34.0,29.95,WNW,286,3.0,5.0,27,0.00,,,0.00,weatherlink.com 1.10,2013-07-14 16:59:00,
2013-07-14 10:14:00,69.6,34.0,29.94,NW,316,0.0,6.0,27,0.00,,,0.00,weatherlink.com 1.10,2013-07-14 17:14:00,
2013-07-14 10:29:00,71.1,35.0,29.94,West,266,3.0,4.0,27,0.00,,,0.00,weatherlink.com 1.10,2013-07-14 17:29:00,
2013-07-14 10:44:00,71.5,35.0,29.94,NW,316,2.0,6.0,26,0.00,,,0.00,weatherlink.com 1.10,2013-07-14 17:44:00,
2013-07-14 10:59:00,72.5,35.0,29.93,West,276,0.0,3.0,25,0.00,,,0.00,weatherlink.com 1.10,2013-07-14 17:59:00,
2013-07-14 11:14:00,72.6,36.0,29.93,WNW,290,3.0,7.0,26,0.00,,,0.00,weatherlink.com 1.10,2013-07-14 18:14:00,
2013-07-14 11:29:00,74.8,35.0,29.92,SE,146,1.0,6.0,23,0.00,,,0.00,weatherlink.com 1.10,2013-07-14 18:29:00,
2013-07-14 11:44:00,76.6,31.0,29.92,SW,225,5.0,10.0,19,0.00,,,0.00,weatherlink.com 1.10,2013-07-14 18:44:00,
2013-07-14 11:59:00,77.4,31.0,29.91,South,174,2.0,8.0,18,0.00,,,0.00,weatherlink.com 1.10,2013-07-14 18:59:00,
2013-07-14 12:15:00,78.3,30.0,29.91,SSE,158,4.0,8.0,17,0.00,,,0.00,weatherlink.com 1.10,2013-07-14 19:15:00,
2013-07-14 12:29:00,78.7,33.0,29.91,North,355,1.0,6.0,19,0.00,,,0.00,weatherlink.com 1.10,2013-07-14 19:29:00,
2013-07-14 12:44:00,79.5,34.0,29.90,West,281,7.0,7.0,19,0.00,,,0.00,weatherlink.com 1.10,2013-07-14 19:44:00,
2013-07-14 12:59:00,78.9,32.0,29.89,WSW,240,1.0,8.0,18,0.00,,,0.00,weatherlink.com 1.10,2013-07-14 19:59:00,
2013-07-14 13:14:00,80.0,33.0,29.89,WNW,291,8.0,9.0,18,0.00,,,0.00,weatherlink.com 1.10,2013-07-14 20:14:00,
2013-07-14 13:30:00,80.3,34.0,29.88,NNW,332,1.0,8.0,19,0.00,,,0.00,weatherlink.com 1.10,2013-07-14 20:30:00,
2013-07-14 13:45:00,81.4,34.0,29.88,NNW,329,3.0,12.0,18,0.00,,,0.00,weatherlink.com 1.10,2013-07-14 20:45:00,
2013-07-14 14:00:00,81.6,34.0,29.87,NW,304,7.0,12.0,18,0.00,,,0.00,weatherlink.com 1.10,2013-07-14 21:00:00,
2013-07-14 14:15:00,81.7,33.0,29.87,WNW,283,9.0,12.0,17,0.00,,,0.00,weatherlink.com 1.10,2013-07-14 21:15:00,
2013-07-14 14:30:00,82.1,33.0,29.86,North,1,5.0,12.0,17,0.00,,,0.00,weatherlink.com 1.10,2013-07-14 21:30:00,
2013-07-14 14:45:00,81.8,34.0,29.86,NNW,340,3.0,11.0,18,0.00,,,0.00,weatherlink.com 1.10,2013-07-14 21:45:00,
2013-07-14 15:00:00,82.0,36.0,29.85,NNE,18,4.0,13.0,19,0.00,,,0.00,weatherlink.com 1.10,2013-07-14 22:00:00,
2013-07-14 15:15:00,82.6,35.0,29.85,NNW,343,6.0,11.0,18,0.00,,,0.00,weatherlink.com 1.10,2013-07-14 22:15:00,
2013-07-14 15:30:00,82.6,35.0,29.84,WNW,298,1.0,12.0,18,0.00,,,0.00,weatherlink.com 1.10,2013-07-14 22:30:00,
2013-07-14 15:45:00,82.8,35.0,29.84,WNW,293,7.0,12.0,18,0.00,,,0.00,weatherlink.com 1.10,2013-07-14 22:45:00,
2013-07-14 16:00:00,83.5,36.0,29.83,West,279,9.0,10.0,18,0.00,,,0.00,weatherlink.com 1.10,2013-07-14 23:00:00,
2013-07-14 16:15:00,83.3,36.0,29.83,WNW,297,6.0,9.0,18,0.00,,,0.00,weatherlink.com 1.10,2013-07-14 23:15:00,
2013-07-14 16:30:00,82.8,35.0,29.82,WNW,294,7.0,12.0,18,0.00,,,0.00,weatherlink.com 1.10,2013-07-14 23:30:00,
2013-07-14 16:45:00,83.8,35.0,29.82,NW,325,2.0,8.0,17,0.00,,,0.00,weatherlink.com 1.10,2013-07-14 23:45:00,
2013-07-14 17:00:00,83.2,34.0,29.81,WNW,295,8.0,10.0,17,0.00,,,0.00,weatherlink.com 1.10,2013-07-15 00:00:00,
2013-07-14 17:15:00,83.2,35.0,29.80,NW,308,3.0,11.0,18,0.00,,,0.00,weatherlink.com 1.10,2013-07-15 00:15:00,
2013-07-14 17:30:00,84.3,35.0,29.80,WNW,302,7.0,10.0,17,0.00,,,0.00,weatherlink.com 1.10,2013-07-15 00:30:00,
2013-07-14 17:45:00,83.6,34.0,29.80,WNW,296,8.0,15.0,17,0.00,,,0.00,weatherlink.com 1.10,2013-07-15 00:45:00,
2013-07-14 18:00:00,84.1,35.0,29.79,WNW,302,10.0,11.0,17,0.00,,,0.00,weatherlink.com 1.10,2013-07-15 01:00:00,
2013-07-14 18:15:00,83.6,34.0,29.78,NW,312,6.0,12.0,17,0.00,,,0.00,weatherlink.com 1.10,2013-07-15 01:15:00,
2013-07-14 18:30:00,83.0,34.0,29.78,NNW,330,4.0,16.0,17,0.00,,,0.00,weatherlink.com 1.10,2013-07-15 01:30:00,
2013-07-14 18:45:00,83.4,33.0,29.78,North,350,4.0,8.0,16,0.00,,,0.00,weatherlink.com 1.10,2013-07-15 01:45:00,
2013-07-14 19:00:00,83.3,33.0,29.78,NW,311,4.0,8.0,16,0.00,,,0.00,weatherlink.com 1.10,2013-07-15 02:00:00,
2013-07-14 19:15:00,82.7,32.0,29.78,NNW,329,5.0,8.0,16,0.00,,,0.00,weatherlink.com 1.10,2013-07-15 02:15:00,
2013-07-14 19:30:00,82.1,33.0,29.78,NW,325,6.0,8.0,17,0.00,,,0.00,weatherlink.com 1.10,2013-07-15 02:30:00,
2013-07-14 19:45:00,81.3,31.0,29.78,NNW,347,5.0,11.0,16,0.00,,,0.00,weatherlink.com 1.10,2013-07-15 02:45:00,
2013-07-14 20:00:00,80.1,31.0,29.79,NNW,327,4.0,9.0,17,0.00,,,0.00,weatherlink.com 1.10,2013-07-15 03:00:00,
2013-07-14 20:15:00,78.0,38.0,29.79,WNW,297,5.0,11.0,24,0.00,,,0.00,weatherlink.com 1.10,2013-07-15 03:15:00,
2013-07-14 20:30:00,76.3,40.0,29.79,NNW,327,4.0,8.0,27,0.00,,,0.00,weatherlink.com 1.10,2013-07-15 03:30:00,
2013-07-14 20:45:00,74.5,40.0,29.80,NW,325,4.0,10.0,29,0.00,,,0.00,weatherlink.com 1.10,2013-07-15 03:45:00,
2013-07-14 21:00:00,72.9,40.0,29.80,NW,316,3.0,7.0,31,0.00,,,0.00,weatherlink.com 1.10,2013-07-15 04:00:00,
2013-07-14 21:15:00,71.4,40.0,29.80,NNW,335,2.0,7.0,32,0.00,,,0.00,weatherlink.com 1.10,2013-07-15 04:15:00,
2013-07-14 21:30:00,70.8,40.0,29.81,North,8,4.0,8.0,33,0.00,,,0.00,weatherlink.com 1.10,2013-07-15 04:30:00,
2013-07-14 21:45:00,70.4,41.0,29.81,North,351,2.0,8.0,34,0.00,,,0.00,weatherlink.com 1.10,2013-07-15 04:45:00,
2013-07-14 22:00:00,69.4,41.0,29.81,NW,325,2.0,5.0,35,0.00,,,0.00,weatherlink.com 1.10,2013-07-15 05:00:00,
2013-07-14 22:15:00,68.5,40.0,29.82,NNW,347,4.0,7.0,36,0.00,,,0.00,weatherlink.com 1.10,2013-07-15 05:15:00,
2013-07-14 22:30:00,67.6,41.0,29.81,NNE,18,2.0,7.0,38,0.00,,,0.00,weatherlink.com 1.10,2013-07-15 05:30:00,
2013-07-14 22:45:00,66.8,40.0,29.81,NNW,340,2.0,3.0,38,0.00,,,0.00,weatherlink.com 1.10,2013-07-15 05:45:00,
2013-07-14 23:00:00,66.2,40.0,29.82,NW,316,0.0,1.0,39,0.00,,,0.00,weatherlink.com 1.10,2013-07-15 06:00:00,
2013-07-14 23:15:00,66.2,40.0,29.81,NW,307,0.0,6.0,39,0.00,,,0.00,weatherlink.com 1.10,2013-07-15 06:15:00,
2013-07-14 23:30:00,65.6,41.0,29.81,NNW,329,0.0,2.0,40,0.00,,,0.00,weatherlink.com 1.10,2013-07-15 06:30:00,
2013-07-14 23:45:00,64.6,40.0,29.82,NW,314,0.0,3.0,41,0.00,,,0.00,weatherlink.com 1.10,2013-07-15 06:45:00,